Temp
60 60 60 60 60 60 60 60 60 61 61 62 62 62 62 62 63 78 79 80 79 72 74 80 83 81 82 78 77 74 70 64 64 66 68 75 74 81 81 79 81 82 83 86 88
60 60 60 60 60 60 60 60 60 60 61 61 62 62 62 62 81 80 79 75 74 74 84 81 80 81 77 76 76 74 69 65 70 71 70 73 73 75 76 76 77 80 84 84 86
60 60 60 60 60 60 59 60 60 61 61 61 62 62 62 67 80 79 75 74 73 77 82 80 79 79 73 75 71 71 67 69 70 73 72 72 72 76 74 72 74 74 79 82 82
59 59 60 59 60 59 59 60 60 61 61 61 62 62 62 81 65 84 76 76 76 83 84 82 79 74 70 69 70 68 70 71 72 72 70 71 74 73 75 75 77 77 78 81 82
58 59 59 59 59 59 59 59 60 60 60 61 62 63 76 76 77 85 78 80 86 85 80 78 76 72 69 69 70 70 70 71 71 70 69 72 73 72 74 77 77 78 79 80 81
58 58 58 58 58 58 58 58 58 59 60 62 63 63 79 71 85 84 84 85 84 83 81 81 77 76 71 68 69 69 69 70 71 72 72 71 71 72 76 76 77 78 79 80 79
58 57 58 58 58 58 58 58 58 59 60 63 65 73 77 76 83 85 84 83 82 82 80 81 80 77 72 68 70 68 67 69 71 71 70 70 67 69 74 73 74 76 78 77 78
57 57 57 58 58 58 58 58 58 60 62 64 65 76 75 84 84 85 85 85 83 83 81 80 81 76 72 71 68 64 64 61 70 69 70 70 61 72 73 72 73 75 75 73 75
57 57 57 58 58 58 58 57 59 62 63 65 75 77 74 82 83 85 85 82 83 82 81 80 77 69 70 65 64 62 57 58 62 69 66 65 62 71 74 72 71 74 72 71 72
57 56 56 57 58 57 56 59 62 65 69 73 75 74 79 76 81 83 84 83 80 79 78 76 71 69 66 66 53 55 56 58 57 65 63 63 63 68 72 71 70 72 70 69 70
57 56 56 56 57 56 64 74 75 74 75 71 72 71 73 81 82 82 83 80 78 75 68 67 67 62 63 63 63 60 56 56 60 64 60 61 60 65 70 68 69 71 69 68 69
57 56 56 56 56 57 67 73 72 74 67 73 71 72 75 79 72 78 83 74 71 66 65 65 62 67 65 63 60 59 56 57 59 62 60 60 59 65 67 67 67 68 67 67 68
56 56 56 56 56 67 74 73 75 74 67 70 74 73 75 78 72 74 78 72 68 64 63 61 66 66 63 61 58 58 55 54 53 59 60 56 58 59 64 65 67 67 67 67 67
55 55 55 54 66 71 74 74 72 75 63 65 71 74 77 76 69 78 78 73 68 64 62 62 65 63 61 58 59 53 59 56 55 53 48 55 47 54 59 62 64 65 65 67 67
55 55 55 55 70 74 74 72 74 75 48 67 71 81 76 72 70 72 76 73 65 64 62 60 61 60 58 57 60 56 58 56 54 50 47 49 46 54 54 57 61 64 65 67 67
55 55 54 64 70 73 72 72 75 60 47 63 69 66 67 68 67 70 69 72 67 62 62 61 65 62 60 60 59 58 56 56 48 48 42 45 44 49 55 57 61 63 66 66 67
55 55 60 66 72 71 71 73 59 52 63 59 61 64 61 60 61 62 59 58 55 51 51 57 58 62 63 57 60 57 52 40 40 39 41 47 44 50 58 60 62 64 66 67 68
53 55 58 70 69 68 72 66 51 56 58 64 62 61 57 59 58 59 57 54 58 56 50 47 47 57 61 58 53 52 50 39 30 35 42 50 40 51 60 62 62 63 64 67 67
53 68 70 72 70 70 69 54 53 57 61 60 61 56 55 58 57 57 54 53 57 58 48 47 46 60 62 60 58 49 44 49 39 40 36 45 48 54 61 60 62 63 64 64 65
66 68 70 69 68 70 63 50 58 63 63 62 54 57 52 54 54 54 53 58 56 60 59 53 42 55 56 58 57 53 55 40 40 28 31 45 44 46 54 58 62 62 62 63 64
65 68 73 67 70 66 56 56 60 65 63 59 56 55 54 52 53 53 53 58 58 58 58 54 44 49 52 52 52 50 46 45 44 41 33 34 44 56 56 59 59 61 62 62 61
62 63 71 69 63 55 57 55 55 61 63 61 60 57 54 54 51 51 51 56 59 59 52 53 47 42 47 58 56 54 50 50 36 38 36 39 39 61 60 61 59 60 62 60 60
58 59 69 68 55 54 55 56 59 58 57 57 56 57 56 53 45 51 53 60 57 57 53 53 42 35 44 48 50 48 49 50 48 43 36 32 39 59 59 59 59 56 57 57 58
59 58 59 58 54 52 50 51 53 59 56 56 55 55 53 50 54 51 52 57 56 57 58 55 47 42 37 44 50 45 48 51 45 33 38 40 44 52 55 55 56 54 55 56 57
53 48 49 51 53 50 51 51 50 50 56 57 52 51 49 45 48 48 51 53 56 56 53 51 42 46 47 47 47 46 46 48 44 45 35 42 44 50 52 50 52 53 53 54 55
53 51 51 50 47 50 47 47 48 49 50 51 50 50 50 45 48 45 49 49 47 52 50 50 41 45 41 47 47 43 47 47 47 46 44 45 44 53 52 53 51 51 51 52 53
50 50 51 46 48 50 50 47 49 50 53 54 51 48 47 51 51 53 53 52 51 48 46 45 43 39 36 45 44 37 44 45 46 48 42 34 47 51 47 46 47 48 51 51 52
MSLP
1017.43 1017.11 1016.84 1016.56 1016.31 1016.04 1015.79 1015.53 1015.27 1015.04 1014.78 1014.50 1014.16 1013.81 1013.44 1013.12 1012.85 1012.77 1012.30 1012.39 1012.09 1011.74 1011.40 1011.17 1010.87 1010.92 1010.80 1011.18 1011.66 1011.84 1011.64 1011.96 1012.28 1012.21 1012.32 1012.15 1011.65 1011.22 1011.18 1010.99 1010.91 1011.06 1011.02 1011.09 1011.03
1017.43 1017.12 1016.85 1016.57 1016.29 1016.01 1015.73 1015.49 1015.21 1014.91 1014.65 1014.42 1014.13 1013.78 1013.38 1013.11 1012.58 1012.39 1012.53 1012.16 1011.89 1011.57 1010.94 1010.84 1010.91 1010.89 1011.27 1011.75 1011.90 1011.71 1012.11 1012.70 1012.95 1012.90 1012.84 1012.48 1012.14 1011.73 1011.42 1011.33 1011.31 1011.22 1011.40 1011.29 1011.03
1017.40 1017.10 1016.79 1016.54 1016.23 1015.96 1015.68 1015.40 1015.12 1014.82 1014.54 1014.29 1013.97 1013.78 1013.29 1013.01 1012.39 1012.51 1012.48 1012.20 1011.97 1011.73 1011.48 1011.41 1011.35 1011.28 1011.81 1012.25 1012.73 1012.66 1012.78 1013.31 1013.24 1013.13 1013.24 1012.77 1012.37 1012.17 1011.86 1011.77 1012.09 1011.93 1011.64 1011.55 1011.47
1017.46 1017.13 1016.82 1016.51 1016.23 1015.94 1015.65 1015.36 1015.06 1014.76 1014.50 1014.20 1013.87 1013.41 1013.07 1012.62 1012.80 1012.37 1012.37 1012.10 1011.87 1011.68 1011.39 1011.30 1011.35 1011.66 1012.34 1012.71 1013.26 1013.11 1013.43 1013.42 1013.32 1013.45 1013.34 1012.81 1012.51 1012.27 1012.03 1012.12 1012.34 1012.37 1012.16 1011.83 1011.46
1017.53 1017.17 1016.87 1016.54 1016.22 1015.93 1015.63 1015.33 1015.06 1014.77 1014.50 1014.18 1013.85 1013.52 1013.16 1012.75 1012.60 1012.33 1012.16 1011.95 1011.76 1011.77 1011.80 1011.70 1011.76 1012.25 1012.59 1013.20 1013.36 1013.27 1013.43 1013.48 1013.53 1013.52 1013.43 1013.12 1012.65 1012.45 1012.29 1012.44 1012.60 1012.38 1012.02 1011.64 1011.41
1017.46 1017.13 1016.81 1016.49 1016.15 1015.84 1015.55 1015.28 1015.03 1014.79 1014.52 1014.25 1013.81 1013.39 1013.09 1012.62 1012.47 1012.44 1012.26 1012.12 1012.20 1012.18 1012.17 1012.01 1012.19 1012.56 1012.98 1013.46 1013.52 1013.86 1013.75 1013.51 1013.39 1013.25 1013.12 1013.11 1012.89 1012.74 1012.30 1012.61 1012.37 1012.14 1011.79 1011.65 1011.64
1017.40 1017.05 1016.69 1016.37 1016.07 1015.78 1015.47 1015.13 1014.86 1014.69 1014.50 1014.22 1013.91 1013.52 1013.09 1012.84 1012.53 1012.47 1012.34 1012.34 1012.42 1012.27 1012.17 1012.45 1012.57 1012.65 1013.27 1013.59 1013.99 1013.98 1013.61 1013.36 1013.31 1013.39 1013.24 1013.40 1012.87 1012.50 1012.57 1012.68 1012.37 1012.06 1011.86 1011.87 1011.76
1017.40 1016.98 1016.61 1016.23 1015.91 1015.56 1015.26 1014.96 1014.73 1014.61 1014.51 1014.30 1014.10 1013.61 1012.95 1012.51 1012.47 1012.36 1012.32 1012.31 1012.45 1012.52 1012.62 1012.76 1012.76 1013.05 1013.53 1014.00 1014.14 1014.06 1014.00 1013.40 1013.36 1013.54 1013.41 1013.28 1012.35 1012.13 1012.53 1012.56 1012.11 1011.98 1011.94 1012.11 1012.13
1017.36 1016.99 1016.56 1016.11 1015.75 1015.35 1014.97 1014.63 1014.39 1014.34 1014.38 1014.19 1013.98 1013.44 1012.81 1012.43 1012.28 1012.27 1012.33 1012.36 1012.49 1012.71 1012.85 1012.94 1013.09 1013.90 1014.08 1013.91 1013.95 1014.28 1013.92 1013.77 1013.51 1013.60 1013.63 1013.40 1012.58 1012.03 1012.38 1012.18 1011.82 1011.59 1011.95 1012.24 1012.30
1017.22 1016.80 1016.38 1015.94 1015.58 1015.16 1014.72 1014.51 1014.44 1014.32 1014.34 1014.11 1013.95 1013.73 1012.91 1012.75 1012.50 1012.33 1012.43 1012.48 1012.50 1012.58 1012.73 1013.05 1013.64 1013.92 1014.26 1013.95 1014.00 1014.24 1014.23 1014.08 1013.79 1013.65 1013.70 1013.11 1012.64 1012.12 1011.85 1011.74 1011.40 1011.27 1011.87 1012.23 1012.43
1017.15 1016.65 1016.13 1015.62 1015.27 1015.02 1014.45 1014.50 1014.83 1014.60 1014.05 1014.02 1013.89 1013.50 1013.11 1012.78 1012.68 1012.35 1012.43 1012.48 1012.72 1012.95 1013.05 1013.77 1013.63 1013.58 1013.88 1014.11 1014.31 1014.44 1014.48 1014.25 1014.13 1014.11 1013.98 1012.94 1012.43 1011.83 1011.32 1011.20 1010.83 1011.02 1011.67 1012.13 1012.39
1017.05 1016.51 1015.97 1015.44 1015.05 1014.74 1014.60 1014.57 1014.92 1015.06 1014.36 1013.71 1013.62 1013.42 1013.15 1013.01 1012.89 1012.61 1012.60 1012.76 1012.94 1013.08 1013.66 1013.92 1013.41 1013.43 1013.92 1014.23 1014.48 1014.59 1014.54 1014.38 1014.59 1014.54 1014.36 1013.02 1011.87 1011.49 1011.06 1010.90 1011.11 1011.14 1011.57 1012.02 1012.31
1016.77 1016.28 1015.76 1015.24 1014.77 1014.48 1014.67 1015.00 1014.79 1014.80 1014.44 1013.56 1013.20 1012.96 1013.01 1013.05 1013.08 1012.88 1012.87 1012.96 1013.03 1013.24 1013.54 1013.55 1013.19 1013.63 1013.96 1014.20 1014.52 1014.69 1014.73 1014.91 1015.13 1014.82 1014.50 1013.64 1011.61 1011.34 1011.25 1011.25 1011.22 1011.46 1011.77 1012.01 1012.24
1016.47 1015.94 1015.50 1015.01 1014.91 1014.94 1014.77 1014.75 1014.68 1014.54 1014.12 1013.69 1013.09 1012.97 1013.04 1013.08 1013.30 1013.34 1013.18 1013.26 1013.27 1013.40 1013.70 1013.66 1013.72 1013.81 1013.96 1014.31 1014.80 1014.78 1015.13 1015.46 1015.41 1015.24 1014.28 1014.55 1011.91 1011.69 1011.41 1011.20 1011.13 1011.42 1011.71 1011.95 1012.08
1016.13 1015.65 1015.38 1015.14 1014.85 1014.88 1014.92 1014.67 1014.41 1014.40 1014.00 1013.81 1013.18 1013.12 1013.28 1013.43 1013.79 1013.65 1013.81 1013.29 1013.66 1013.89 1014.34 1013.92 1014.02 1014.13 1014.25 1014.74 1015.14 1015.22 1015.66 1015.74 1015.62 1015.51 1015.39 1014.62 1014.00 1011.83 1011.95 1011.13 1010.79 1011.02 1011.27 1011.60 1011.99
1015.82 1015.41 1015.30 1015.11 1014.95 1014.93 1014.82 1014.56 1014.28 1014.41 1014.08 1013.87 1013.68 1013.76 1013.90 1014.27 1014.51 1014.53 1014.40 1014.37 1014.65 1014.53 1014.67 1014.61 1014.73 1014.69 1014.75 1015.19 1015.57 1015.98 1015.98 1015.74 1016.34 1015.97 1015.18 1014.63 1014.32 1011.83 1011.31 1011.00 1010.74 1010.87 1010.92 1011.22 1011.57
1015.78 1015.41 1015.06 1015.25 1015.28 1014.96 1014.71 1014.46 1014.52 1014.36 1014.81 1014.75 1014.54 1014.66 1014.97 1015.23 1015.26 1015.36 1015.35 1015.32 1015.42 1015.25 1015.32 1015.32 1015.04 1015.05 1015.15 1015.27 1015.71 1016.10 1016.26 1016.07 1015.95 1015.74 1014.89 1014.89 1014.06 1011.77 1011.19 1011.07 1010.80 1010.69 1010.83 1011.10 1011.37
1015.97 1015.75 1015.53 1015.32 1015.17 1014.97 1014.60 1014.65 1014.74 1015.20 1015.04 1015.15 1015.26 1015.41 1015.59 1015.93 1016.07 1015.99 1016.00 1016.05 1016.26 1016.31 1016.30 1015.99 1015.27 1015.40 1015.56 1015.74 1015.99 1016.46 1016.98 1017.55 1017.06 1016.03 1015.11 1014.73 1013.00 1011.23 1010.84 1010.77 1010.78 1010.91 1010.97 1010.99 1011.14
1015.87 1015.64 1015.44 1015.28 1015.08 1014.79 1014.75 1015.04 1015.63 1015.60 1015.58 1015.46 1015.50 1015.73 1016.17 1016.51 1016.68 1016.52 1016.51 1016.48 1016.49 1016.70 1016.89 1016.59 1016.20 1015.83 1015.74 1016.01 1016.34 1016.95 1017.46 1018.05 1017.78 1017.40 1016.22 1013.55 1012.59 1011.83 1010.64 1010.42 1010.52 1010.62 1010.75 1010.76 1011.06
1016.20 1015.96 1015.85 1015.46 1015.19 1014.80 1015.09 1016.02 1016.20 1016.10 1015.91 1015.82 1015.96 1016.35 1016.52 1016.84 1017.02 1016.98 1016.68 1016.69 1016.73 1017.03 1017.34 1017.41 1016.80 1016.17 1016.18 1016.34 1016.53 1016.77 1017.23 1018.07 1018.39 1017.38 1015.12 1012.25 1011.74 1010.58 1010.24 1009.95 1010.04 1010.32 1010.41 1010.63 1011.01
1016.53 1016.28 1015.95 1015.58 1015.28 1015.41 1016.25 1016.82 1016.67 1016.46 1016.40 1016.33 1016.38 1016.63 1016.97 1017.25 1017.41 1017.39 1017.07 1016.90 1017.02 1017.32 1017.72 1017.84 1018.26 1016.94 1016.83 1015.94 1015.70 1016.73 1017.01 1017.62 1017.98 1017.26 1015.45 1013.06 1010.56 1010.47 1010.20 1010.06 1010.16 1010.28 1010.70 1010.91 1011.12
1017.26 1016.87 1016.40 1015.75 1016.34 1017.69 1017.69 1017.98 1017.76 1017.21 1017.01 1016.89 1016.96 1017.26 1017.58 1017.79 1017.86 1017.82 1017.45 1017.26 1017.40 1017.59 1017.75 1018.19 1018.28 1017.11 1016.32 1015.43 1015.93 1016.13 1016.20 1016.65 1017.00 1016.08 1015.85 1013.97 1010.51 1010.67 1010.21 1010.13 1010.70 1010.75 1010.71 1011.31 1011.40
1018.67 1018.35 1016.93 1016.44 1018.08 1018.89 1018.97 1018.64 1018.43 1018.11 1018.08 1017.89 1017.95 1018.26 1018.48 1018.51 1018.59 1018.26 1017.92 1017.49 1017.72 1017.79 1017.95 1018.45 1018.53 1017.57 1015.72 1015.98 1016.14 1015.96 1016.13 1016.18 1016.23 1016.30 1014.79 1013.78 1010.86 1010.62 1010.59 1010.46 1010.93 1011.31 1011.54 1011.59 1011.30
1019.68 1019.63 1019.36 1019.41 1020.61 1020.20 1020.14 1019.78 1019.25 1019.06 1019.04 1019.00 1019.02 1019.16 1019.26 1019.16 1019.11 1018.61 1018.22 1017.90 1017.93 1017.98 1018.06 1018.46 1018.28 1017.74 1016.90 1015.81 1015.93 1015.66 1015.58 1015.46 1015.75 1015.61 1014.17 1012.68 1011.51 1010.61 1010.85 1010.89 1011.33 1012.02 1012.02 1011.80 1011.31
1021.37 1022.57 1022.72 1021.59 1021.24 1021.17 1020.95 1020.63 1020.21 1019.89 1019.69 1019.60 1019.80 1020.13 1020.43 1020.17 1019.74 1018.96 1018.70 1018.48 1018.16 1018.15 1018.30 1018.50 1017.95 1017.72 1017.31 1016.54 1015.95 1015.37 1014.74 1014.20 1014.71 1014.30 1014.22 1012.36 1011.85 1011.17 1011.40 1011.94 1012.24 1012.44 1012.17 1011.65 1011.08
1023.22 1023.69 1023.34 1022.76 1022.48 1021.67 1021.45 1021.31 1021.01 1020.81 1020.69 1020.29 1020.32 1020.62 1020.92 1020.80 1020.31 1019.65 1019.47 1019.25 1018.90 1018.76 1018.89 1019.21 1018.26 1017.83 1016.92 1016.17 1015.48 1014.95 1014.32 1013.94 1013.88 1013.63 1013.53 1013.17 1012.00 1012.12 1012.50 1012.63 1012.53 1012.39 1012.13 1011.34 1010.78
1024.66 1024.62 1023.92 1023.36 1022.73 1022.25 1021.98 1021.88 1021.63 1021.56 1020.97 1020.96 1021.14 1021.24 1020.76 1020.44 1020.50 1019.94 1019.64 1019.29 1019.34 1019.28 1019.29 1019.50 1018.79 1018.15 1016.49 1016.27 1015.58 1014.57 1013.94 1014.16 1014.05 1014.01 1014.03 1013.51 1012.60 1012.75 1012.78 1012.94 1012.78 1012.25 1011.70 1011.00 1010.55
Wind_Speed
11 11 10 10 10 10 11 10 10 10 10 10 10 11 12 12 3 1 10 4 5 9 7 1 6 4 4 5 5 1 4 6 3 3 3 5 6 5 4 6 5 7 7 9 9
12 12 11 10 10 10 10 11 10 10 10 10 10 10 11 9 2 11 3 6 7 10 9 10 6 6 6 5 5 5 4 3 2 3 3 5 4 5 4 9 7 10 11 11 10
13 13 12 11 11 10 10 10 10 10 9 10 10 8 10 5 5 5 1 3 4 4 4 3 5 5 6 4 8 4 5 3 2 3 2 2 2 3 2 5 4 6 10 11 10
14 13 13 12 11 10 10 10 10 10 10 10 11 13 12 1 4 2 2 6 6 2 5 13 6 5 5 7 4 5 2 1 1 1 2 3 0 3 2 4 1 2 3 5 9
14 13 12 12 11 11 10 9 9 9 9 10 10 11 3 5 4 2 6 8 6 6 8 6 14 4 7 3 2 7 6 5 7 4 4 2 2 1 4 2 3 4 3 7 8
15 14 13 12 12 11 10 10 9 9 8 9 11 11 3 11 1 6 5 4 5 4 4 6 5 4 5 3 4 3 4 6 2 2 2 2 2 3 3 2 5 7 8 8 8
16 15 13 12 11 11 11 11 10 9 8 8 9 3 3 3 3 5 3 2 1 2 5 4 3 2 2 3 2 1 1 3 3 5 2 2 5 5 2 2 6 7 8 8 8
16 15 15 13 12 11 11 11 10 8 6 6 7 1 2 1 4 3 1 2 3 3 2 5 5 7 3 2 3 3 1 6 7 6 2 5 10 11 1 5 9 10 8 7 9
16 15 15 14 13 12 12 11 7 3 3 5 1 2 3 5 3 3 1 1 0 3 6 5 4 4 1 2 2 5 6 9 7 6 5 3 12 12 9 11 12 14 6 4 7
17 16 15 14 13 12 12 0 5 3 0 1 2 3 1 1 3 2 1 0 2 2 1 6 4 2 2 3 5 5 5 4 10 5 4 13 14 14 16 15 17 16 5 1 4
19 17 15 14 13 10 2 2 2 1 3 1 1 1 3 4 2 2 0 3 2 3 1 3 2 2 0 3 3 5 5 8 8 6 10 15 17 19 19 17 16 10 4 3 3
19 18 17 14 13 7 2 5 3 1 4 1 2 4 3 1 2 3 1 2 2 4 3 3 6 4 4 4 5 5 6 9 7 7 11 18 23 18 15 12 6 5 3 2 1
19 18 16 14 13 1 4 4 4 4 1 4 0 1 2 4 3 7 2 1 2 3 4 6 5 2 4 3 5 4 6 3 8 13 12 12 16 2 1 6 4 3 2 2 2
18 16 14 16 2 0 2 5 3 5 1 2 2 3 2 1 3 5 4 1 1 4 3 5 3 2 3 3 2 6 3 6 11 13 13 4 10 3 3 6 7 3 5 3 2
19 14 10 7 6 2 3 6 3 2 3 2 3 2 3 3 4 8 5 3 4 3 2 2 4 4 4 1 3 4 5 9 11 13 6 5 7 1 3 8 6 6 5 4 2
19 10 4 2 1 3 6 1 0 1 3 2 4 5 3 7 4 8 8 5 1 2 2 2 3 1 2 2 1 3 6 10 1 3 6 4 2 4 5 4 5 4 5 5 5
20 6 3 1 2 6 4 1 1 1 2 3 3 3 3 4 2 6 6 6 5 5 5 8 2 0 0 3 2 3 8 5 3 3 5 6 8 11 12 12 14 12 9 7 7
17 3 2 3 6 4 1 2 2 1 2 1 2 1 1 7 3 7 4 3 3 3 2 4 4 3 1 11 9 3 2 3 7 6 13 11 10 4 4 4 4 5 5 8 10
10 1 3 8 5 1 3 4 2 1 3 3 1 1 1 1 4 5 2 2 1 2 3 4 5 5 14 4 3 4 6 2 5 4 6 6 6 10 15 12 7 10 8 8 9
2 2 3 13 5 2 4 3 2 2 3 0 1 0 2 1 2 6 3 2 2 2 1 1 10 7 3 3 3 7 7 4 2 5 8 9 13 12 9 9 10 13 14 5 11
2 2 5 11 1 5 4 2 1 2 5 1 2 2 2 1 2 3 3 1 1 3 3 3 3 3 3 7 12 5 5 4 5 5 6 11 9 4 10 13 13 14 8 13 10
2 2 6 6 4 2 3 4 5 4 7 4 1 1 1 0 3 3 4 4 2 3 6 0 4 10 18 21 10 10 14 14 7 9 8 13 17 12 14 10 10 13 17 11 10
3 2 4 4 4 3 3 2 4 7 5 5 4 5 4 0 3 4 4 4 3 2 4 2 3 7 7 4 3 4 4 12 10 6 17 17 13 3 9 16 17 12 11 13 16
2 2 5 6 2 2 4 3 4 6 3 4 2 4 3 2 2 5 9 5 2 7 11 5 7 12 11 19 18 21 21 20 15 8 17 20 27 24 21 21 16 11 12 16 19
6 3 2 4 4 3 1 3 3 5 3 4 2 7 5 4 9 8 4 8 12 9 0 3 9 12 17 22 22 23 25 24 20 23 17 26 25 24 21 11 12 12 15 20 20
3 3 1 1 3 1 2 2 3 4 2 1 2 7 7 7 10 17 11 5 7 3 2 4 10 14 20 16 14 15 19 21 20 20 16 19 23 7 10 11 17 18 21 24 23
2 2 1 2 1 2 1 2 2 4 2 4 3 11 11 8 6 14 15 17 16 16 16 8 5 4 12 9 17 15 6 8 13 11 8 8 17 13 14 19 18 22 24 23 22
Wind_Direction
10 2 358 349 346 342 339 336 332 329 327 324 325 324 325 330 316 195 44 330 300 313 313 286 61 61 48 63 39 166 81 100 101 102 56 0 2 351 344 359 32 14 25 341 344
3 359 355 349 344 341 336 332 327 324 321 321 321 321 322 329 76 60 342 303 318 335 25 29 44 42 63 29 31 37 83 79 36 101 16 320 316 343 346 22 26 43 34 6 355
1 357 353 350 344 339 334 329 325 321 321 321 320 322 325 312 60 22 304 275 322 350 57 70 93 60 61 30 8 37 57 136 166 227 306 260 262 335 352 54 36 20 12 27 28
360 357 352 348 343 339 335 331 327 324 325 326 329 332 330 351 77 305 313 4 14 11 45 34 50 63 64 53 12 104 43 256 321 194 294 246 310 117 101 115 217 286 329 1 20
359 356 351 345 342 338 335 331 325 321 323 323 325 328 326 68 88 336 344 4 33 25 29 49 55 83 70 75 108 44 2 330 313 297 234 254 350 104 221 204 252 283 334 6 355
357 354 351 346 341 335 329 324 318 313 317 326 334 323 60 87 23 354 1 4 37 38 34 35 67 90 94 73 54 347 329 331 337 3 293 231 334 203 228 263 321 338 338 344 344
355 351 347 343 337 329 321 318 315 312 313 324 340 2 77 91 352 339 354 351 333 25 27 41 111 60 135 116 10 18 11 20 14 9 22 295 215 267 90 299 299 304 315 325 328
353 348 344 339 331 324 315 310 306 303 300 304 325 326 123 330 309 291 338 26 45 56 77 33 96 92 38 119 49 34 76 347 359 340 72 328 301 306 10 313 303 302 300 319 333
351 346 341 338 330 324 316 306 287 275 269 312 342 19 109 319 343 2 267 359 346 90 52 77 66 58 67 49 86 36 332 331 323 357 339 352 304 306 294 301 293 294 308 342 5
348 343 336 334 328 325 319 248 101 124 62 240 103 149 16 16 302 310 91 353 30 1 57 40 53 99 110 21 7 319 304 291 302 342 335 306 292 299 295 282 281 280 288 347 7
346 341 335 331 329 331 320 165 358 43 38 322 299 287 274 300 291 353 108 126 111 75 255 39 307 359 289 204 210 226 237 270 294 303 318 301 296 295 295 287 281 290 226 15 334
343 339 335 329 323 326 275 75 116 42 315 58 241 264 271 313 355 344 242 208 196 269 150 228 284 210 184 209 231 230 275 301 287 295 312 305 297 301 288 272 296 281 206 316 335
337 336 332 326 318 332 68 87 308 178 329 319 278 337 38 155 43 355 351 117 238 244 218 250 288 144 238 233 244 247 267 257 298 317 284 287 286 252 266 265 231 196 211 203 341
336 333 331 322 114 6 64 336 283 202 66 20 68 55 48 163 110 18 19 296 188 282 196 258 350 287 292 253 217 282 196 285 287 311 307 355 297 255 266 265 274 207 205 216 214
338 335 335 347 130 87 359 327 128 206 146 63 64 15 14 69 320 32 351 10 293 313 234 309 341 331 295 95 200 310 312 295 293 287 278 194 254 108 285 267 283 234 247 231 233
347 348 333 85 61 42 331 282 188 188 127 71 42 17 38 11 36 335 6 32 51 53 45 300 300 272 96 71 90 330 299 288 170 239 244 136 255 260 245 258 264 234 235 255 238
351 18 85 291 38 332 317 100 138 62 312 40 17 2 105 9 8 8 2 29 28 354 5 322 24 31 99 338 288 313 328 315 276 236 295 161 283 271 281 269 269 278 278 267 252
341 305 30 65 321 308 46 105 100 106 42 80 26 108 68 1 37 348 12 35 80 78 305 332 302 343 164 330 296 292 264 263 291 291 298 271 249 238 244 273 280 259 257 268 255
323 345 44 348 331 312 88 64 89 46 330 354 344 73 108 36 351 346 10 270 186 123 5 298 247 293 296 304 221 149 218 354 273 264 266 237 254 268 272 258 247 242 301 279 279
50 40 32 336 327 57 74 109 96 37 330 92 261 312 294 329 315 350 315 187 188 182 24 313 295 270 287 252 193 249 147 204 208 268 259 263 266 270 281 260 291 298 310 312 323
53 64 357 345 336 49 76 70 22 7 18 315 214 237 212 257 241 301 272 269 202 144 211 286 221 272 275 241 277 221 215 208 280 234 264 291 271 219 287 295 296 308 321 326 325
37 60 355 333 47 25 56 345 340 353 16 20 81 80 314 253 266 265 254 260 156 331 315 37 242 274 273 276 295 260 263 251 235 234 232 278 276 291 282 287 324 308 311 326 318
54 332 346 340 64 31 349 12 34 11 25 15 45 40 16 305 303 245 252 283 201 242 333 177 250 302 281 184 143 226 218 239 252 276 257 266 269 237 268 296 320 329 323 319 318
46 31 10 47 47 71 12 11 352 15 93 1 46 79 34 316 247 278 271 290 357 304 299 238 235 231 265 290 296 287 278 264 253 256 268 260 276 288 295 301 321 317 317 315 313
16 62 32 2 44 51 355 359 355 355 6 357 114 73 36 300 294 265 271 291 291 301 141 261 263 271 277 282 284 279 280 281 265 261 258 279 287 293 310 324 323 316 311 311 305
49 355 64 66 296 319 5 55 15 333 281 350 296 342 321 264 262 292 296 268 273 336 43 340 283 300 294 283 286 287 279 275 280 279 268 273 283 327 318 309 317 322 318 308 307
44 122 269 78 352 279 70 98 335 328 237 270 357 329 297 294 299 281 272 267 268 277 282 273 289 294 289 313 306 282 330 323 307 300 311 283 303 321 319 320 320 318 309 306 306